Find Yaogan 30 hao 06 zu 01 xing

NORAD ID: 45460 Int'l Des: 2020-021 Owner: ZLZB Country: CN Constellation: yaogan operational
LEOCIRCULAR

Live Position

Loading 3D Globe...

About Yaogan 30 hao 06 zu 01 xing

Description loading...

Upcoming Passes

Passes for default location (London). Set your location on the main map for personalized predictions.

Altitude History

Loading altitude history...

Two-Line Element Set

1 45460U 20021A 26104.84232914 .00001841 00000-0 13839-3 0 9991
2 45460 34.9944 236.8838 0003433 201.3505 158.7060 15.02405333331023
Epoch: Apr 14, 2026 • Age: 5 hours

Current Status

Altitude 564.0 km
Velocity 7.58 km/s
Sub-Earth Point -18.94°S, 9.39°W
Launch Date Mar 24, 2020
Age 6 years
Type military

Technical Details

Classification Payload
Mass 500.00 kg
Dry Mass 500.00 kg
Total Mass 500.00 kg
Length 0.50 m
Diameter 0.50 m
Span 1.00 m
Shape Box + 2 Pan
Manufacturer SECM
Phase Status In Orbit
Owner/State ZLZB/CN

Most Searched